Temperature
32 31 31 31 33 33 33 32 32 32 33 33 32 31 31 30 30 30 29 28 27 26 26 25 24 23 22 21 21 21 21 20 20 20 20 19 19 19 19 19 19 19 19 19
32 31 32 33 34 34 33 32 32 33 33 33 32 31 31 30 30 29 29 28 27 26 26 25 24 23 22 22 21 21 21 20 20 20 20 20 19 19 19 19 19 19 19 19
31 32 34 33 33 33 33 32 32 32 33 33 32 31 30 29 29 29 29 29 28 27 26 25 24 23 23 22 21 21 21 20 20 20 20 20 19 19 19 19 19 19 19 19
32 33 33 33 33 33 32 33 33 32 32 31 31 29 29 29 29 29 29 29 28 27 26 25 24 23 23 22 21 21 21 20 20 20 20 19 19 19 19 19 19 19 19 19
32 33 33 33 33 33 33 33 33 32 31 30 30 30 29 29 28 29 30 29 29 27 27 26 25 24 23 22 22 21 21 20 20 20 19 19 19 19 19 19 19 19 19 19
33 34 34 33 34 34 34 33 32 31 30 28 29 30 29 29 29 30 30 29 28 28 27 26 25 24 23 22 22 21 21 20 20 20 19 19 19 19 19 19 19 19 19 19
32 33 33 34 33 33 33 31 29 28 28 28 30 30 30 31 31 31 30 29 28 27 26 25 25 24 23 22 22 21 21 20 20 20 20 19 19 19 19 19 19 19 19 18
31 30 32 33 33 32 32 31 29 28 27 29 30 29 30 31 32 31 30 29 28 27 26 26 25 24 23 22 22 21 21 20 20 20 19 19 19 19 19 19 19 19 18 18
30 30 32 33 34 33 32 32 32 30 29 29 30 29 29 30 31 31 30 29 28 27 26 25 25 24 23 23 22 21 20 20 20 19 19 19 19 19 19 19 19 18 18 18
31 30 32 33 34 34 34 33 32 31 28 28 28 28 28 28 29 30 30 29 28 27 26 25 24 24 23 23 22 21 20 20 20 19 19 19 19 19 19 19 18 18 18 18
32 31 31 32 32 32 33 32 32 31 30 28 27 28 30 29 30 29 30 29 28 27 26 25 24 24 23 22 22 21 21 20 20 19 19 19 18 18 18 18 18 18 18 18
32 31 30 31 33 33 33 32 32 30 29 29 28 28 30 30 30 30 30 29 28 27 26 25 24 23 23 22 22 21 21 20 20 19 19 19 18 18 18 18 18 17 17 17
31 30 28 29 31 32 32 32 32 31 30 29 28 28 30 30 30 30 29 28 27 26 26 25 24 23 22 22 21 21 21 20 20 19 19 18 18 18 18 17 17 17 17 17
30 29 28 28 29 30 30 31 32 31 29 29 29 29 29 29 29 29 28 28 27 26 25 24 23 22 22 21 21 20 20 20 20 19 19 18 18 17 17 17 17 17 17 16
31 28 28 29 30 30 31 31 31 31 30 30 30 29 29 29 29 28 28 27 27 26 25 24 23 22 21 21 20 20 20 19 19 19 18 18 17 17 17 16 17 17 16 16
30 28 28 28 29 31 31 31 31 31 31 31 30 30 30 30 29 28 27 27 26 26 25 23 22 21 21 20 20 19 19 19 18 18 18 17 17 17 16 16 16 16 16 16
29 28 27 28 29 30 29 31 31 31 31 31 30 30 30 30 29 28 27 26 25 25 24 23 22 21 20 20 19 19 19 18 18 17 17 17 16 16 16 16 16 16 16 15
28 27 27 28 28 27 30 32 32 31 31 31 30 30 30 29 28 27 26 25 24 24 23 22 22 21 20 19 19 18 18 18 17 17 17 16 16 16 16 16 15 15 15 15
29 27 27 27 27 28 30 31 31 30 30 30 30 29 29 29 27 26 25 24 23 23 22 21 21 20 20 19 18 18 18 17 17 17 16 16 16 16 15 15 15 14 14 14
28 28 27 26 26 26 28 31 31 30 28 30 30 29 29 28 27 26 24 24 23 22 22 21 20 20 19 18 18 18 18 17 17 16 16 16 15 15 15 15 14 14 14 14
27 26 26 26 26 27 29 30 30 28 27 28 29 28 28 27 26 25 24 23 22 21 21 20 20 19 19 18 18 17 17 17 16 16 15 15 15 15 15 15 14 14 14 14
26 26 26 26 25 26 28 29 28 27 27 28 28 27 27 26 25 24 23 22 21 21 20 20 19 19 18 17 17 17 16 16 16 15 15 15 15 14 14 14 14 14 14 14
27 26 26 26 26 26 27 27 26 26 26 26 26 26 26 25 24 23 22 21 21 20 20 19 19 18 17 17 17 16 16 16 15 15 15 15 14 14 14 14 14 14 14 14
26 26 26 25 26 26 26 26 26 26 26 26 25 25 25 24 23 22 22 21 20 20 19 19 18 17 17 16 16 16 16 15 15 15 14 14 14 14 14 14 14 13 13 13
25 25 25 24 25 25 25 25 25 25 25 25 25 25 24 23 23 22 21 20 20 19 19 18 17 17 16 16 16 15 15 15 14 14 14 14 14 14 14 14 14 13 13 13
24 24 24 24 24 24 24 24 24 24 24 24 24 24 23 23 22 21 20 19 19 18 18 17 17 16 16 15 15 15 14 14 14 14 14 14 14 14 14 13 13 13 13 13
Wind_Speed
13 11 10 13 12 11 9 6 6 5 3 4 3 5 6 5 5 7 8 8 9 8 9 10 9 9 9 8 6 5 4 4 2 1 1 1 2 2 2 3 4 3 3 2
12 13 14 14 12 12 9 7 7 3 2 4 3 5 6 6 7 7 8 9 10 10 9 9 9 9 9 8 6 5 3 3 2 2 2 1 1 1 2 3 3 3 2 1
13 12 11 12 11 11 9 7 7 6 5 5 5 3 5 5 4 6 8 8 10 11 10 10 9 8 8 8 7 5 4 3 2 2 1 1 1 1 1 2 2 2 2 1
12 12 11 11 11 10 8 6 8 8 7 5 7 4 5 7 8 8 10 10 10 10 10 10 10 8 7 8 7 6 5 4 3 1 1 1 1 1 1 1 1 2 1 1
12 11 11 11 9 9 10 7 7 8 7 8 8 6 4 9 9 10 10 10 10 11 11 11 10 9 7 8 7 7 5 4 3 1 1 1 1 1 1 1 1 1 1 1
15 12 11 11 10 10 10 9 8 8 6 8 10 7 4 7 9 10 9 10 9 9 9 9 9 9 7 7 7 7 6 4 3 2 1 1 2 2 2 2 1 0 1 1
15 13 12 11 11 10 10 8 5 6 5 7 7 5 2 5 7 9 10 10 10 9 9 8 8 9 7 7 7 7 7 5 3 3 2 1 1 1 1 1 1 1 0 0
12 11 11 11 11 9 11 9 7 7 6 7 5 3 1 3 5 9 11 11 11 10 9 9 8 9 8 7 7 7 7 5 4 3 2 1 0 0 1 1 2 1 1 1
8 8 10 11 12 12 11 10 10 10 9 8 4 1 3 3 5 9 10 11 11 10 9 8 8 8 8 7 7 7 6 5 4 4 3 2 1 1 2 2 2 2 2 1
10 9 11 11 11 13 12 11 9 7 6 8 7 5 4 6 5 7 10 11 10 9 9 9 8 7 6 6 6 6 6 5 4 4 3 2 2 1 1 1 1 2 2 2
12 11 10 11 12 11 10 11 10 9 6 6 6 3 2 6 6 7 9 10 10 9 9 9 8 7 5 5 6 5 6 5 5 4 3 2 2 2 1 0 1 1 2 2
9 9 10 12 11 11 11 9 9 8 6 6 6 3 2 4 7 8 9 10 9 8 9 9 8 7 5 4 4 4 5 5 5 4 3 2 1 1 1 1 1 1 1 1
6 6 8 10 9 9 9 9 10 9 8 7 7 3 4 3 5 7 10 11 9 8 9 9 8 7 5 4 3 3 3 3 4 4 3 3 2 1 1 1 1 1 1 1
5 8 9 11 8 8 10 11 10 9 8 8 6 4 4 5 5 6 9 10 11 9 8 9 8 7 6 5 4 3 3 3 4 4 3 3 3 2 2 2 2 2 2 2
7 8 9 12 12 12 13 11 10 10 10 10 6 4 4 5 7 7 9 9 9 10 9 9 8 7 6 6 5 4 4 4 4 4 3 3 3 3 3 3 3 3 3 2
7 7 9 12 14 13 12 10 9 9 9 8 6 3 3 5 6 9 9 8 8 9 9 9 8 8 6 6 5 4 4 4 5 4 3 3 3 3 3 2 3 3 2 2
7 7 9 11 11 11 12 9 8 7 7 6 4 3 4 5 7 8 8 7 6 8 9 9 7 7 6 5 4 4 4 5 4 4 4 4 4 4 3 3 3 2 2 2
6 6 7 9 10 12 9 7 8 7 6 5 2 3 4 5 7 7 8 7 5 7 8 7 7 7 7 6 5 4 5 5 5 4 4 3 3 3 2 3 3 2 2 2
8 7 7 8 10 11 9 7 7 6 5 3 2 2 3 6 7 7 8 8 5 6 8 7 7 8 7 6 5 5 5 5 4 3 3 3 2 2 2 2 2 2 2 2
10 7 8 9 10 10 7 6 4 4 5 3 1 2 3 4 4 6 9 10 8 6 7 7 7 8 7 5 5 4 4 4 3 3 2 2 2 2 2 1 2 2 2 2
10 9 11 11 11 8 7 6 4 5 3 1 0 3 3 3 4 8 10 9 8 8 7 7 7 7 6 5 5 4 3 3 3 3 3 2 2 1 0 1 1 1 2 2
9 8 9 9 10 7 5 3 2 2 3 2 1 2 3 6 9 11 11 9 8 8 7 7 7 7 6 5 5 4 4 4 3 3 2 2 1 1 1 1 1 1 2 2
8 5 5 4 4 1 4 3 2 2 2 2 3 4 4 7 10 10 10 9 8 8 7 6 7 7 6 5 5 4 4 3 2 2 1 1 1 1 1 1 2 2 2 2
5 4 4 3 2 3 4 4 4 2 2 3 3 4 5 6 9 9 8 8 7 7 7 6 7 6 5 5 4 4 4 3 2 1 1 0 0 1 1 1 2 2 2 3
6 5 4 5 4 4 2 3 3 3 3 3 3 3 4 6 8 8 8 6 5 6 6 6 5 5 5 5 4 4 3 2 1 1 1 1 1 1 1 1 2 2 2 2
7 6 6 5 3 3 2 2 1 1 1 1 3 4 5 6 7 7 7 6 6 6 6 6 5 5 5 5 4 3 3 2 1 1 1 2 1 1 1 1 2 5 3 2
Wind_Direction
238 240 247 257 261 265 274 280 279 266 226 229 197 153 156 157 174 165 159 156 146 147 148 140 132 126 122 115 110 105 96 90 85 83 82 75 79 89 93 101 93 88 79 61
245 244 249 257 268 271 274 280 282 260 222 257 219 157 157 175 186 180 168 161 155 153 152 142 139 137 133 129 127 122 117 109 109 86 79 103 87 92 96 94 101 100 93 67
240 252 256 262 267 269 277 278 284 294 285 282 269 198 161 177 210 178 182 174 162 157 162 154 147 143 140 137 135 130 118 105 92 90 94 89 100 90 73 105 117 115 106 82
252 247 252 258 260 274 273 278 285 288 284 277 269 250 185 181 195 195 186 180 168 156 160 157 150 147 149 139 132 124 120 113 99 94 59 53 77 57 43 72 92 111 103 104
252 247 252 256 259 267 273 265 284 294 287 282 264 262 192 176 194 197 189 174 162 159 159 158 155 154 149 139 135 127 119 112 109 100 63 22 16 32 50 52 87 114 131 119
258 253 250 256 262 261 270 277 283 284 274 267 260 256 193 186 196 185 176 170 160 155 152 151 151 148 146 143 137 133 124 117 118 113 77 50 358 15 20 358 358 214 145 151
248 246 247 250 256 256 259 264 278 276 261 259 261 257 185 176 176 166 165 158 153 152 151 150 154 150 148 146 140 134 133 134 137 137 124 100 355 342 329 312 327 335 2 59
250 244 235 243 248 252 249 245 251 272 273 274 248 230 153 128 147 141 147 148 150 153 156 158 159 154 154 153 146 139 141 145 145 141 132 112 111 292 329 342 347 3 352 33
258 254 244 236 243 249 256 255 254 261 270 282 279 134 142 165 138 138 140 144 146 154 156 155 157 156 159 157 153 148 146 146 147 147 140 134 125 18 17 20 3 11 355 15
257 261 251 233 238 241 250 267 271 262 269 281 282 247 197 177 166 152 145 142 143 147 149 146 145 146 145 151 154 151 148 150 144 143 158 153 153 119 75 19 12 4 11 27
247 253 256 247 234 248 245 252 265 281 283 275 278 283 124 165 166 164 152 146 146 149 148 146 142 136 139 147 146 153 155 154 151 156 154 144 145 149 147 61 348 360 13 22
253 262 264 260 249 248 258 259 265 269 275 276 278 269 192 170 157 161 151 142 140 140 135 134 130 128 132 129 132 148 158 160 153 143 137 127 116 128 132 94 13 22 36 29
272 262 266 265 251 237 245 252 259 269 274 269 271 225 184 143 140 142 138 133 131 127 125 125 122 120 119 118 110 122 130 131 132 130 133 121 105 77 53 58 33 7 19 12
265 257 254 258 270 264 252 255 259 266 270 272 263 220 183 156 150 145 134 136 137 133 128 125 123 124 119 115 109 97 97 101 106 106 103 96 83 61 49 36 34 31 28 29
249 255 261 271 272 265 265 259 252 255 262 270 258 220 185 176 170 146 136 140 144 142 142 135 133 129 126 118 108 100 94 87 85 90 87 87 80 69 57 40 36 36 25 24
248 254 262 269 268 266 269 266 258 257 262 266 256 224 167 162 151 139 140 142 145 145 143 138 135 129 120 118 114 114 103 93 90 88 81 75 63 59 52 36 36 29 24 18
252 247 258 262 265 271 262 263 263 264 270 274 256 205 155 159 141 134 136 136 139 141 137 134 133 125 122 117 104 112 109 99 91 81 73 70 61 58 42 26 40 27 18 8
263 270 255 260 269 259 261 265 267 265 269 280 253 174 168 154 131 128 127 131 143 134 128 135 136 128 120 113 108 107 104 99 90 82 77 78 68 60 45 38 31 13 3 347
256 254 259 258 257 260 264 261 254 253 261 277 228 175 171 134 124 121 118 123 127 119 121 127 128 125 118 113 108 107 108 105 96 87 82 76 65 54 48 36 17 353 342 329
231 236 247 254 261 260 278 292 262 239 255 277 251 155 155 165 172 143 126 125 125 116 120 123 120 118 115 110 109 112 110 100 89 78 69 64 60 41 30 32 3 350 329 313
223 223 235 246 255 261 292 316 287 245 269 350 53 137 154 148 128 119 121 120 129 126 123 120 112 110 109 111 115 114 100 86 78 76 66 56 54 33 79 54 360 329 315 322
247 233 231 242 249 259 328 308 274 12 23 15 69 107 115 106 112 119 127 130 133 125 124 121 115 113 110 115 116 110 91 83 80 80 68 47 11 325 29 11 320 299 291 294
252 251 252 246 244 316 332 359 42 45 64 59 69 91 102 114 116 121 127 132 130 127 127 121 115 111 110 112 111 108 94 91 84 73 57 24 356 354 13 337 322 307 305 313
262 279 254 272 268 312 334 356 18 35 67 75 84 110 111 120 127 127 125 124 127 130 130 126 124 119 112 109 102 98 97 95 89 82 68 350 300 326 9 343 337 345 345 337
289 282 271 260 265 269 291 2 22 33 36 63 73 88 117 124 130 129 125 122 126 129 126 125 123 124 117 107 99 101 100 97 70 31 356 305 309 313 324 337 352 347 20 24
287 280 265 268 273 285 320 335 353 27 16 63 89 98 112 119 127 125 127 126 127 127 122 118 117 120 117 115 109 103 102 93 56 350 323 317 324 342 326 329 11 29 26 54
Height
1476 1478 1480 1473 1465 1465 1464 1469 1473 1467 1459 1463 1467 1471 1472 1476 1478 1481 1484 1487 1490 1494 1497 1500 1502 1503 1505 1505 1506 1507 1507 1507 1507 1507 1507 1507 1507 1508 1508 1508 1507 1507 1507 1507
1474 1475 1468 1464 1462 1461 1463 1470 1470 1462 1458 1461 1465 1469 1470 1473 1477 1479 1482 1485 1489 1492 1496 1499 1501 1503 1504 1505 1506 1506 1507 1507 1507 1507 1507 1508 1508 1508 1508 1508 1508 1507 1507 1507
1474 1469 1461 1462 1462 1463 1465 1468 1468 1466 1461 1460 1466 1473 1472 1474 1476 1479 1480 1483 1486 1490 1494 1497 1500 1502 1504 1505 1505 1506 1506 1507 1507 1507 1507 1508 1508 1508 1508 1508 1508 1508 1507 1507
1466 1462 1461 1463 1463 1463 1470 1461 1461 1464 1470 1475 1473 1488 1477 1474 1476 1477 1478 1480 1484 1488 1492 1496 1499 1501 1503 1504 1505 1506 1506 1506 1507 1507 1507 1508 1508 1508 1508 1508 1508 1508 1507 1507
1465 1460 1460 1464 1461 1460 1462 1457 1460 1464 1471 1478 1475 1482 1479 1472 1477 1474 1474 1477 1481 1486 1490 1494 1497 1499 1502 1503 1504 1505 1506 1506 1506 1507 1507 1507 1508 1508 1508 1508 1508 1508 1507 1507
1459 1456 1456 1457 1455 1456 1456 1458 1462 1466 1475 1492 1479 1481 1483 1471 1469 1468 1471 1476 1480 1484 1488 1492 1495 1498 1500 1502 1503 1504 1505 1505 1506 1506 1506 1507 1507 1507 1507 1507 1507 1507 1507 1507
1463 1458 1455 1455 1458 1456 1458 1470 1489 1495 1498 1494 1470 1475 1475 1460 1458 1462 1468 1473 1478 1482 1487 1490 1494 1497 1499 1501 1502 1503 1504 1504 1505 1505 1506 1506 1506 1507 1506 1507 1507 1507 1507 1506
1471 1471 1457 1454 1456 1460 1460 1467 1491 1506 1505 1488 1472 1478 1469 1457 1458 1461 1467 1472 1477 1481 1486 1489 1492 1495 1498 1500 1501 1502 1503 1504 1504 1505 1505 1505 1506 1506 1506 1506 1506 1506 1506 1505
1467 1469 1452 1450 1450 1453 1460 1461 1460 1475 1481 1489 1478 1474 1465 1459 1459 1462 1466 1471 1476 1481 1485 1489 1492 1494 1497 1499 1500 1501 1502 1503 1504 1504 1504 1504 1505 1505 1505 1505 1505 1505 1504 1504
1456 1467 1454 1448 1449 1448 1450 1453 1459 1470 1493 1500 1489 1483 1477 1467 1464 1463 1466 1471 1476 1481 1484 1488 1491 1494 1496 1498 1500 1501 1502 1502 1503 1503 1504 1504 1504 1504 1504 1504 1504 1503 1503 1503
1450 1461 1458 1451 1454 1456 1453 1456 1459 1463 1468 1489 1498 1488 1462 1463 1462 1465 1466 1471 1476 1480 1483 1487 1490 1493 1496 1497 1499 1500 1501 1502 1502 1503 1503 1503 1503 1504 1504 1503 1503 1502 1502 1501
1449 1456 1463 1455 1445 1444 1448 1452 1457 1473 1477 1476 1486 1484 1458 1458 1459 1462 1466 1471 1475 1479 1483 1487 1490 1493 1495 1497 1498 1499 1500 1501 1501 1501 1502 1502 1503 1503 1502 1502 1501 1501 1500 1500
1452 1461 1475 1471 1460 1450 1451 1449 1451 1456 1465 1473 1482 1481 1458 1457 1459 1462 1466 1471 1476 1480 1483 1486 1490 1493 1495 1496 1497 1498 1499 1500 1500 1501 1501 1501 1501 1501 1501 1500 1500 1500 1499 1499
1455 1461 1473 1480 1471 1459 1457 1452 1450 1456 1469 1472 1470 1469 1462 1459 1462 1464 1468 1472 1476 1481 1484 1486 1490 1492 1494 1495 1496 1497 1498 1499 1499 1500 1500 1500 1500 1500 1500 1500 1499 1499 1498 1497
1454 1465 1465 1461 1455 1453 1454 1452 1451 1455 1457 1465 1463 1463 1460 1460 1462 1465 1468 1472 1476 1480 1484 1486 1489 1491 1493 1494 1496 1497 1498 1498 1498 1499 1499 1499 1499 1499 1499 1498 1498 1498 1497 1496
1454 1463 1465 1465 1456 1451 1452 1449 1449 1450 1450 1453 1455 1458 1454 1458 1461 1465 1469 1473 1476 1479 1483 1486 1489 1490 1492 1493 1494 1496 1497 1498 1498 1498 1499 1499 1499 1499 1498 1498 1497 1497 1496 1495
1454 1462 1469 1469 1457 1456 1462 1450 1450 1449 1447 1450 1457 1456 1454 1457 1461 1465 1469 1473 1477 1480 1482 1485 1488 1490 1492 1493 1494 1495 1497 1497 1498 1498 1498 1498 1498 1498 1497 1497 1496 1495 1495 1494
1458 1462 1464 1467 1466 1479 1455 1440 1441 1445 1446 1445 1448 1450 1454 1457 1462 1466 1470 1474 1478 1480 1482 1485 1487 1489 1491 1492 1494 1495 1496 1497 1497 1498 1498 1497 1497 1497 1497 1496 1495 1494 1493 1492
1454 1460 1465 1469 1473 1466 1451 1441 1441 1447 1450 1446 1449 1451 1454 1456 1462 1468 1472 1475 1479 1480 1482 1485 1487 1489 1491 1492 1493 1495 1496 1496 1497 1497 1497 1497 1497 1496 1496 1495 1494 1493 1492 1491
1452 1456 1465 1468 1475 1475 1457 1441 1440 1446 1456 1449 1449 1451 1455 1459 1464 1470 1472 1476 1480 1482 1484 1486 1487 1489 1491 1492 1493 1494 1495 1496 1496 1497 1497 1496 1496 1495 1495 1494 1494 1492 1491 1491
1457 1460 1464 1467 1471 1462 1449 1444 1444 1460 1462 1451 1452 1454 1457 1460 1464 1469 1472 1476 1479 1481 1484 1486 1487 1489 1491 1492 1493 1494 1495 1495 1496 1496 1496 1496 1495 1495 1495 1494 1493 1492 1491 1490
1457 1459 1462 1463 1471 1469 1449 1448 1452 1457 1454 1454 1455 1457 1460 1462 1465 1469 1473 1477 1480 1482 1484 1486 1487 1489 1490 1492 1493 1493 1494 1495 1495 1495 1495 1495 1495 1495 1494 1493 1492 1491 1490 1489
1451 1453 1454 1458 1461 1456 1452 1453 1454 1454 1455 1457 1458 1460 1462 1464 1467 1471 1474 1477 1479 1482 1484 1486 1487 1489 1490 1491 1492 1493 1493 1494 1494 1494 1494 1494 1494 1493 1493 1492 1491 1490 1489 1489
1449 1449 1451 1455 1453 1454 1454 1454 1455 1456 1457 1458 1459 1461 1463 1466 1469 1471 1474 1477 1480 1482 1484 1486 1487 1489 1490 1491 1492 1492 1493 1493 1493 1493 1493 1493 1493 1492 1492 1491 1491 1489 1489 1488
1452 1452 1452 1455 1455 1455 1455 1456 1457 1458 1458 1459 1461 1463 1465 1466 1469 1472 1475 1478 1481 1483 1484 1486 1487 1488 1489 1490 1491 1492 1492 1492 1492 1492 1492 1492 1492 1491 1491 1490 1490 1489 1488 1487
1453 1454 1456 1456 1455 1455 1456 1457 1458 1459 1460 1461 1462 1464 1466 1468 1471 1473 1476 1479 1481 1483 1484 1485 1487 1488 1488 1489 1490 1491 1492 1492 1492 1492 1492 1492 1492 1491 1490 1489 1489 1488 1487 1486